Brownwood, TX

10:09 PM CDT on September 24, 2016 (GMT -0500)
Brownwood Regional

Weather History for KBWD - May, 2014

Change the Weather History Date:

Sunday, May 4, 2014

  Actual Average (KABI) Record (KABI)
Temperature  
Mean Temperature 68 °F 70 °F  
Max Temperature 93 °F 82 °F 101 °F (1947)
Min Temperature 44 °F 58 °F 33 °F (1907)
Degree Days  
Heating Degree Days 0 1  
Month to date heating degree days 4  
Since 1 July heating degree days 2546  
Cooling Degree Days 4 6  
Month to date cooling degree days 23  
Year to date cooling degree days 156  
Growing Degree Days 18 (Base 50)    
Moisture  
Dew Point 33 °F    
Average Humidity 29    
Maximum Humidity 76    
Minimum Humidity 9    
Precipitation  
Precipitation 0.00 in 0.08 in 2.36 in (1969)
Month to date precipitation 0.34  
Year to date precipitation 6.10  
Sea Level Pressure  
Sea Level Pressure 30.00 in    
Wind  
Wind Speed 6 mph (South)    
Max Wind Speed 17 mph    
Max Gust Speed 25 mph    
Visibility 10 miles    
Events Rain    
T = Trace of Precipitation, MM = Missing Value Source: NWS Daily Summary

Daily Weather History Graph

Daily Weather History Graph

Search for Another Location

Airport or City:

Trip Planner

Search our weather history database for the weather conditions in past years. The results will help you decide how hot, cold, wet, or windy it might be!

Date:

Astronomy

May. 04, 2014 Rise Set
Actual Time 6:47 AM CDT 8:18 PM CDT
Civil Twilight 6:21 AM CDT 8:44 PM CDT
Nautical Twilight 5:50 AM CDT 9:15 PM CDT
Astronomical Twilight 5:17 AM CDT 9:48 PM CDT
Moon 11:14 AM CDT (5/4) 12:22 AM CDT (5/4)
Length of Visible Light 14h 22m
Length of Day
13h 30m
Waxing Crescent, 28% of the Moon is Illuminated
May 4
Waxing Crescent
May 6
First Quarter
May 14
Full
May 21
Last Quarter
May 28
New

Hourly Weather History & Observations

Time (CDT) Temp. Dew Point Humidity Pressure Visibility Wind Dir Wind Speed Gust Speed Precip Events Conditions
12:15 AM 64.4 °F 32.0 °F 30% 30.03 in 10.0 mi SSE 5.8 mph - N/A   Partly Cloudy
12:35 AM 66.2 °F 32.0 °F 28% 30.03 in 10.0 mi SE 6.9 mph - N/A   Partly Cloudy
12:55 AM 66.2 °F 32.0 °F 28% 30.03 in 10.0 mi SSE 6.9 mph - N/A   Partly Cloudy
1:15 AM 64.4 °F 32.0 °F 30% 30.03 in 10.0 mi SSE 5.8 mph - N/A   Partly Cloudy
1:35 AM 59.0 °F 35.6 °F 42% 30.03 in 10.0 mi Calm Calm - N/A   Partly Cloudy
1:55 AM 59.0 °F 32.0 °F 36% 30.03 in 10.0 mi SSE 3.5 mph - N/A   Scattered Clouds
2:15 AM 59.0 °F 32.0 °F 36% 30.02 in 10.0 mi Calm Calm - N/A   Partly Cloudy
2:35 AM 59.0 °F 32.0 °F 36% 30.02 in 5.0 mi SSE 3.5 mph - N/A   Haze
2:55 AM 53.6 °F 37.4 °F 54% 30.02 in 10.0 mi Calm Calm - N/A   Mostly Cloudy
3:15 AM 53.6 °F 37.4 °F 54% 30.01 in 10.0 mi Calm Calm - N/A   Scattered Clouds
3:35 AM 51.8 °F 39.2 °F 62% 30.01 in 10.0 mi North - - N/A   Scattered Clouds
3:55 AM 50.0 °F 37.4 °F 62% 30.01 in 10.0 mi North - - N/A   Mostly Cloudy
4:15 AM 53.6 °F 35.6 °F 51% 30.02 in 10.0 mi North - - N/A   Mostly Cloudy
4:35 AM 50.0 °F 37.4 °F 62% 30.02 in 10.0 mi Calm Calm - N/A   Mostly Cloudy
4:55 AM 48.2 °F 37.4 °F 66% 30.02 in 10.0 mi Calm Calm - N/A   Mostly Cloudy
5:15 AM 48.2 °F 37.4 °F 66% 30.02 in 10.0 mi WNW 3.5 mph - N/A   Mostly Cloudy
5:35 AM 50.0 °F 37.4 °F 62% 30.03 in 10.0 mi Calm Calm - N/A   Mostly Cloudy
5:55 AM 48.2 °F 35.6 °F 62% 30.03 in 10.0 mi Calm Calm - N/A   Overcast
6:15 AM 46.4 °F 35.6 °F 66% 30.04 in 10.0 mi Calm Calm - N/A   Mostly Cloudy
6:35 AM 44.6 °F 35.6 °F 71% 30.04 in 10.0 mi Calm Calm - N/A   Partly Cloudy
6:55 AM 44.6 °F 37.4 °F 76% 30.05 in 10.0 mi Calm Calm - N/A   Clear
7:15 AM 46.4 °F 37.4 °F 71% 30.06 in 10.0 mi Calm Calm - N/A   Clear
7:35 AM 50.0 °F 39.2 °F 66% 30.06 in 10.0 mi Calm Calm - N/A   Clear
7:55 AM 55.4 °F 39.2 °F 54% 30.07 in 10.0 mi Calm Calm - N/A   Clear
8:15 AM 59.0 °F 37.4 °F 45% 30.07 in 10.0 mi Calm Calm - N/A   Clear
8:55 AM 68.0 °F 35.6 °F 30% 30.07 in 10.0 mi South 6.9 mph - N/A Rain Light Rain
9:15 AM 69.8 °F 37.4 °F 31% 30.08 in 10.0 mi SSW 8.1 mph - N/A   Clear
9:35 AM 71.6 °F 39.2 °F 31% 30.08 in 10.0 mi SSW 4.6 mph - N/A   Clear
9:55 AM 75.2 °F 37.4 °F 25% 30.08 in 10.0 mi SW 9.2 mph - N/A   Clear
10:15 AM 77.0 °F 35.6 °F 22% 30.08 in 10.0 mi SSW 10.4 mph - N/A   Clear
10:35 AM 77.0 °F 37.4 °F 24% 30.08 in 10.0 mi SSW 9.2 mph - N/A   Clear
10:55 AM 80.6 °F 37.4 °F 21% 30.08 in 10.0 mi SW 9.2 mph - N/A   Clear
11:15 AM 82.4 °F 37.4 °F 20% 30.07 in 10.0 mi SSW 12.7 mph - N/A   Clear
11:35 AM 84.2 °F 35.6 °F 18% 30.07 in 10.0 mi South 13.8 mph 17.3 mph N/A   Clear
11:55 AM 84.2 °F 35.6 °F 18% 30.06 in 10.0 mi South 9.2 mph 16.1 mph N/A   Clear
12:15 PM 86.0 °F 33.8 °F 15% 30.05 in 10.0 mi South 12.7 mph 20.7 mph N/A   Clear
12:35 PM 87.8 °F 33.8 °F 15% 30.04 in 10.0 mi South 12.7 mph 19.6 mph N/A   Clear
12:55 PM 87.8 °F 32.0 °F 14% 30.03 in 10.0 mi South 12.7 mph 21.9 mph N/A   Clear
1:15 PM 89.6 °F 30.2 °F 12% 30.02 in 10.0 mi South 17.3 mph 25.3 mph N/A   Clear
1:35 PM 89.6 °F 28.4 °F 11% 30.01 in 10.0 mi SSW 12.7 mph 25.3 mph N/A   Clear
1:55 PM 89.6 °F 26.6 °F 10% 30.01 in 10.0 mi South 16.1 mph 21.9 mph N/A   Clear
2:15 PM 89.6 °F 28.4 °F 11% 30.00 in 10.0 mi South 15.0 mph 21.9 mph N/A   Clear
2:35 PM 89.6 °F 28.4 °F 11% 29.99 in 10.0 mi South 11.5 mph 17.3 mph N/A   Clear
2:55 PM 91.4 °F 28.4 °F 10% 29.98 in 10.0 mi SSW 15.0 mph 21.9 mph N/A   Clear
3:15 PM 91.4 °F 28.4 °F 10% 29.97 in 10.0 mi SSW 11.5 mph 20.7 mph N/A   Clear
3:35 PM 91.4 °F 28.4 °F 10% 29.96 in 10.0 mi SW 10.4 mph - N/A   Clear
3:55 PM 93.2 °F 26.6 °F 9% 29.95 in 10.0 mi South 15.0 mph 25.3 mph N/A   Clear
4:15 PM 91.4 °F 26.6 °F 10% 29.94 in 10.0 mi South 15.0 mph 21.9 mph N/A   Clear
4:35 PM 91.4 °F 26.6 °F 10% 29.93 in 10.0 mi SSE 15.0 mph 23.0 mph N/A   Clear
4:55 PM 91.4 °F 26.6 °F 10% 29.93 in 10.0 mi South 15.0 mph 19.6 mph N/A   Clear
5:15 PM 91.4 °F 26.6 °F 10% 29.92 in 10.0 mi SSW 10.4 mph 17.3 mph N/A   Clear
5:35 PM 91.4 °F 28.4 °F 10% 29.92 in 10.0 mi South 6.9 mph - N/A   Clear
5:55 PM 91.4 °F 28.4 °F 10% 29.91 in 10.0 mi South 13.8 mph - N/A   Clear
6:15 PM 91.4 °F 30.2 °F 11% 29.91 in 10.0 mi South 10.4 mph - N/A   Clear
6:35 PM 91.4 °F 30.2 °F 11% 29.91 in 10.0 mi SSE 10.4 mph - N/A   Clear
6:55 PM 89.6 °F 32.0 °F 13% 29.90 in 10.0 mi South 10.4 mph - N/A   Clear
7:15 PM 89.6 °F 32.0 °F 13% 29.90 in 10.0 mi SSE 8.1 mph - N/A   Clear
7:35 PM 87.8 °F 32.0 °F 14% 29.90 in 10.0 mi South 10.4 mph 19.6 mph N/A   Clear
7:55 PM 86.0 °F 32.0 °F 14% 29.91 in 10.0 mi SSE 9.2 mph - N/A   Clear
8:15 PM 84.2 °F 30.2 °F 14% 29.91 in 10.0 mi SSE 8.1 mph - N/A   Clear
8:35 PM 82.4 °F 32.0 °F 16% 29.92 in 10.0 mi SSE 10.4 mph - N/A   Clear
8:55 PM 80.6 °F 32.0 °F 17% 29.92 in 10.0 mi SE 8.1 mph - N/A   Clear
9:15 PM 77.0 °F 32.0 °F 19% 29.93 in 10.0 mi SE 9.2 mph - N/A   Clear
9:35 PM 77.0 °F 32.0 °F 19% 29.93 in 10.0 mi SE 8.1 mph - N/A   Partly Cloudy
9:55 PM 77.0 °F 32.0 °F 19% 29.94 in 10.0 mi SE 9.2 mph - N/A   Partly Cloudy
10:15 PM 77.0 °F 32.0 °F 19% 29.94 in 10.0 mi SSE 10.4 mph - N/A   Partly Cloudy
10:35 PM 75.2 °F 32.0 °F 21% 29.95 in 10.0 mi SSE 9.2 mph - N/A   Partly Cloudy
10:55 PM 75.2 °F 33.8 °F 22% 29.95 in 10.0 mi SSE 10.4 mph 17.3 mph N/A   Scattered Clouds
11:15 PM 75.2 °F 35.6 °F 24% 29.95 in 10.0 mi SE 9.2 mph - N/A   Partly Cloudy
11:35 PM 73.4 °F 35.6 °F 25% 29.96 in 10.0 mi SSE 9.2 mph - N/A   Partly Cloudy
11:55 PM 73.4 °F 35.6 °F 25% 29.96 in 10.0 mi SSE 11.5 mph - N/A   Partly Cloudy